Location: Arthurs Seat
(13.1500°N, 59.6000°W)
Time: 22:54:36
(UTC+00:00)

S3M - Pass Details

Date: 25 August 2019
Orbit: 948 x 1005 km, 83.0° (Epoch: 17 September)

Event Time Altitude Azimuth Distance (km) Brightness Sun altitude
Rises 23:35:27 0° 179° (S) 3,713 6.9 -20.1°
Reaches altitude 10° 23:38:00 10° 178° (S) 2,759 6.2 -20.7°
Maximum altitude 23:44:19 76° 93° (E) 1,017 3.9 -22.2°
Drops below altitude 10° 23:50:34 10° 8° (N) 2,725 6.4 -23.6°
Sets 23:53:03 0° 7° (N) 3,664 7.2 -24.2°
